Regional Weather Roundup
Issued by NWS

Home | Current Version | Previous Version | Graphics & Text | Print | Product List | Glossary On
Versions: 1 2 3 4 5 6 7 8 9 10 11 12 13 14 15 16 17 18 19 20 21 22 23 24 25 26 27 28 29 30 31 32 33 34 35 36 37 38 39 40 41 42 43 44 45 46 47 48 49 50
000
ASUS43 KIND 181809
RWRIN

WEATHER ROUNDUP FOR INDIANA
NATIONAL WEATHER SERVICE INDIANAPOLIS IN
100 PM EST WED JAN 18 2017

NOTE: "FAIR" INDICATES FEW OR NO CLOUDS BELOW 12,000 FEET WITH NO
SIGNIFICANT WEATHER AND/OR OBSTRUCTIONS TO VISIBILITY.

* - STATION DOES NOT REPORT WEATHER SUCH AS PRECIPITATION OR FOG.

+ - STATION NOT QUALITY CONTROLLED BY THE NATIONAL WEATHER SERVICE.
    USE DATA WITH CAUTION...ESPECIALLY DEWPOINT AND RELATIVE
    HUMIDITY OBSERVATIONS.

INZ001>003-010>013-019-020-181900-
NORTHWEST INDIANA

CITY           SKY/WX    TMP DP  RH WIND       PRES   REMARKS
GARY /AIRPORT/ CLOUDY    36  34  93 SW14      30.12F FOG
KNOX *+        CLOUDY    34  28  80 SW12      30.13F WCI  25
LA PORTE +     CLOUDY    34  33  97 SW10      30.12F FOG     WCI  26
6HR MIN TEMP:  33; 6HR MAX TEMP:  35;

MICHIGAN CITY+ CLOUDY    36  36 100 S12       30.11F
MONTICELLO +   CLOUDY    33  32  95 W12G20    30.17F FOG     WCI  25
6HR MIN TEMP:  33; 6HR MAX TEMP:  34;

RENSSELAER +     N/A     34  34 100 SW13      30.16F FOG     WCI  25
VALPARAISO     CLOUDY    35  34  96 SW15      30.12F FOG     WCI  25
6HR MIN TEMP:  35; 6HR MAX TEMP:  36;


$$

LMZ046-743>745-181900-
SOUTHERN LAKE MICHIGAN

STATION/POSITION TIME  TEMP    WIND        PRES    WAVE
                       AIR SEA DIR/SP/G            HT
                 (UTC) (F)     (DEG/KT/KT) (MB)    (FT)
BURNS HARBOR     1740   35     220/ 15/ 19 1020.3F

$$

INZ004-005-014>016-021>024-181900-
NORTH CENTRAL INDIANA

CITY           SKY/WX    TMP DP  RH WIND       PRES   REMARKS
ELKHART        CLOUDY    36  34  93 SW8       30.11F FOG
GOSHEN         CLOUDY    35  32  88 SW12      30.11F FOG     WCI  27
6HR MIN TEMP:  34; 6HR MAX TEMP:  35;

LOGANSPORT +   CLOUDY    34  34 100 SW13      30.17F WCI  25
PERU/GRISSOM   CLOUDY    36  36 100 SW13      30.14F
6HR MIN TEMP:  34; 6HR MAX TEMP:  36;

ROCHESTER +    CLOUDY    36  36 100 SW10      30.14F
SOUTH BEND     FOG       34  34 100 SW12      30.11F VSB 1   WCI  25
6HR MIN TEMP:  33; 6HR MAX TEMP:  35;

WARSAW +       CLOUDY    34  30  86 W8        30.12F WCI  27

$$

INZ006>009-017-018-025>027-181900-
NORTHEAST INDIANA

CITY           SKY/WX    TMP DP  RH WIND       PRES   REMARKS
ANGOLA *+      CLOUDY    36  36 100 W8        30.08F
AUBURN +       CLOUDY    36  32  87 SW5       30.12F
FORT WAYNE     CLOUDY    37  33  85 W13       30.14F
6HR MIN TEMP:  35; 6HR MAX TEMP:  37; 6HR PCP: TRACE;

HUNTINGTON +   CLOUDY    35  34  96 W10       30.14F WCI  27
6HR MIN TEMP:  33; 6HR MAX TEMP:  36;

KENDALLVILLE + CLOUDY    34  34  99 SW10      30.10F FOG     WCI  26

$$

INZ028-029-035-036-043>045-051>053-181900-
WEST CENTRAL INDIANA

CITY           SKY/WX    TMP DP  RH WIND       PRES   REMARKS
CRAWFORDSVL +  CLOUDY    34  34 100 SW8       30.18F WCI  27
6HR MIN TEMP:  33; 6HR MAX TEMP:  34;

GREENCASTLE +  CLOUDY    36  36 100 W6        30.19F FOG
LAFAYETTE      CLOUDY    35  34  96 SW9       30.18F WCI  28
6HR MIN TEMP:  33; 6HR MAX TEMP:  35;

TERRE HAUTE    CLOUDY    39  34  82 SW8       30.20F
6HR MIN TEMP:  37; 6HR MAX TEMP:  39;


$$

INZ030>032-037>040-046>048-054>057-064-065-181900-
CENTRAL INDIANA

CITY           SKY/WX    TMP DP  RH WIND       PRES   REMARKS
ANDERSON       CLOUDY    36  36 100 W12       30.18F FOG
CP ATTERBURY + CLOUDY    39  36  87 W7        30.20F
COLUMBUS       CLOUDY    39  39 100 W6        30.21F
FRANKFORT +    CLOUDY    38  37  94 W14       30.19F FOG
6HR MIN TEMP:  36; 6HR MAX TEMP:  38;

GREENWOOD *+   CLOUDY    39  38  99 W9        30.19F
6HR MIN TEMP:  37; 6HR MAX TEMP:  39;

INDIANAPOLIS   CLOUDY    38  36  92 W13       30.18F FOG
6HR MIN TEMP:  36; 6HR MAX TEMP:  38; 6HR PCP: TRACE;

-EAGLE CREEK   CLOUDY    37  34  89 W7        30.17F FOG
6HR MIN TEMP:  36; 6HR MAX TEMP:  37;

KOKOMO +       CLOUDY    36  34  92 SW13      30.17F
6HR MIN TEMP:  33; 6HR MAX TEMP:  36;

MARION +       CLOUDY    36  34  93 W10       30.17F
MT COMFORT *+  CLOUDY    36  36 100 SW7       30.19S
SHELBYVILLE    CLOUDY    39  36  89 W8        30.18F FOG
6HR MIN TEMP:  38; 6HR MAX TEMP:  39;

ZIONSVILLE +   CLOUDY    35  34  97 SW9       30.18F FOG     WCI  28
6HR MIN TEMP:  33; 6HR MAX TEMP:  35;


$$

INZ033-034-041-042-049-050-058-059-181900-
EAST CENTRAL INDIANA

CITY           SKY/WX    TMP DP  RH WIND       PRES   REMARKS
MUNCIE         CLOUDY    37  34  89 W10       30.16F
6HR MIN TEMP:  36; 6HR MAX TEMP:  37;


$$

INZ060-061-067>069-081>083-085>088-181900-
SOUTHWEST INDIANA

CITY           SKY/WX    TMP DP  RH WIND       PRES   REMARKS
EVANSVILLE     CLOUDY    43  34  70 SE3       30.24F
6HR MIN TEMP:  40; 6HR MAX TEMP:  43;

HUNTINGBURG *+ CLOUDY    40  35  83 CALM      30.23F
6HR MIN TEMP:  39; 6HR MAX TEMP:  41;

WASHINGTON +   CLOUDY    40  34  80 W3        30.22F
6HR MIN TEMP:  38; 6HR MAX TEMP:  40;


$$

INZ062-063-066-070>080-084-089>092-181900-
SOUTH CENTRAL AND SOUTHEAST INDIANA

CITY           SKY/WX    TMP DP  RH WIND       PRES   REMARKS
BLOOMINGTON    CLOUDY    39  35  86 W6        30.19F
6HR MIN TEMP:  37; 6HR MAX TEMP:  39; 6HR PCP: TRACE;

MADISON *+     CLOUDY    41  36  81 W7        30.22F
NORTH VERNON + CLOUDY   N/A N/A N/A W9        30.21F
SEYMOUR +      CLOUDY    41  37  87 W10       30.21F

$$





USA.gov is the U.S. government's official web portal to all federal, state and local government web resources and services.